This is the latest recevied weather packets stored in our database for station/object DB0WUN-13. If no packets are shown the sender has not sent any weather packets the latest 1 day(s).
| Time | Temp. | Humidity | Pressure | Rain* | Wind** | Luminosity | Snow |
|---|---|---|---|---|---|---|---|
| 1777999596 | 17.78° C | 66% | 1006.4 hPa | 0 mm | 0.89 m/s, 32° | 79 W/m² | - |
| 1777999536 | 17.78° C | 67% | 1006.4 hPa | 0 mm | 0.89 m/s, 32° | 81 W/m² | - |
| 1777999477 | 17.78° C | 66% | 1006.5 hPa | 0 mm | 0.89 m/s, 21° | 84 W/m² | - |
| 1777999416 | 17.78° C | 67% | 1006.4 hPa | 0 mm | 0.89 m/s, 44° | 86 W/m² | - |
| 1777999354 | 17.78° C | 67% | 1006.5 hPa | 0 mm | 0.89 m/s, 54° | 91 W/m² | - |
| 1777999295 | 17.78° C | 67% | 1006.5 hPa | 0 mm | 0.89 m/s, 36° | 91 W/m² | - |
| 1777999232 | 17.78° C | 67% | 1006.5 hPa | 0 mm | 0.89 m/s, 35° | 91 W/m² | - |
| 1777999174 | 17.78° C | 67% | 1006.5 hPa | 0 mm | 0.89 m/s, 50° | 91 W/m² | - |
| 1777999110 | 17.78° C | 67% | 1006.4 hPa | 0 mm | 0.89 m/s, 58° | 90 W/m² | - |
| 1777999050 | 17.78° C | 67% | 1006.5 hPa | 0 mm | 0.89 m/s, 25° | 88 W/m² | - |
| 1777998989 | 17.78° C | 68% | 1006.5 hPa | 0 mm | 0.89 m/s, 48° | 84 W/m² | - |
| 1777998935 | 17.78° C | 68% | 1006.5 hPa | 0 mm | 0.89 m/s, 44° | 83 W/m² | - |
| 1777998886 | 17.78° C | 68% | 1006.5 hPa | 0 mm | 0.89 m/s, 324° | 79 W/m² | - |
| 1777998838 | 17.78° C | 68% | 1006.5 hPa | 0 mm | 0.89 m/s, 38° | 77 W/m² | - |
| 1777998792 | 17.78° C | 68% | 1006.5 hPa | 0 mm | 1.34 m/s, 24° | 77 W/m² | - |
| 1777998759 | 17.78° C | 68% | 1006.5 hPa | 0 mm | 1.34 m/s, 21° | 76 W/m² | - |
| 1777998727 | 17.78° C | 67% | 1006.5 hPa | 0 mm | 1.34 m/s, 22° | 77 W/m² | - |
| 1777998680 | 17.78° C | 67% | 1006.5 hPa | 0 mm | 1.34 m/s, 47° | 77 W/m² | - |
| 1777998496 | 17.78° C | 67% | 1006.6 hPa | 0 mm | 1.34 m/s, 44° | 79 W/m² | - |
| 1777998435 | 17.78° C | 66% | 1006.6 hPa | 0 mm | 1.79 m/s, 46° | 83 W/m² | - |
| 1777998377 | 17.78° C | 67% | 1006.7 hPa | 0 mm | 1.79 m/s, 19° | 84 W/m² | - |
| 1777998325 | 17.78° C | 67% | 1006.7 hPa | 0 mm | 1.34 m/s, 18° | 86 W/m² | - |
| 1777998253 | 17.78° C | 66% | 1006.7 hPa | 0 mm | 1.34 m/s, 32° | 86 W/m² | - |
| 1777998191 | 17.78° C | 66% | 1006.7 hPa | 0 mm | 1.79 m/s, 35° | 88 W/m² | - |
| 1777998129 | 17.78° C | 66% | 1006.7 hPa | 0 mm | 1.79 m/s, 356° | 91 W/m² | - |
* Rain latest hour (hover to see other rain measurements)
** Current wind speed in m/s (hover to see current wind gust speed)